Аэропорт
Владивосток (UHWW)

 UHWW / VVO
ЗЦ Хабаровск
Хабаровск (UHHH)
Хабаровск (UHHH)
 43.39900, 132.14800  / 46 ft

 UHWW 250500Z 34006MPS 9999 NSC 14/M03 Q1010 R25L/0///70 TEMPO 34009G14MPS RMK QFE756
 TAF UHWW 250200Z 2503/2603 32008MPS 9999 SCT020 TEMPO 2503/2511 33009G14MPS BKN016CB FM251100 35003MPS 5000 HZ SCT030 BECMG 2523/2601 9999 NSW SCT017
UHWW_aip_1709, UHWW_j_0220
показать схемы
Название сценария Тип сценария Flight Simulator 9 Flight Simulator X Prepar3D v2 Prepar3D v3 Prepar3D v4 Prepar3D v5 xPlane
UHWW THE EAST GATE P3D4 платный
UHWW THE EAST GATE P3D5 платный
UHWW, Vladivostok 1.0.0 X-Flight бесплатный
UHWW, Vladivostok 2017 v 1.2 бесплатный
uhww-scenery-fs9-1408 бесплатный
uhww-scenery-fsx-1304 бесплатный
Vladivostok UHWW (P3Dv4.4+) бесплатный

 

Международный аэропорт Владивосток (Кневичи) имени В. К. Арсеньева (ИАТА: VVO, ИКАО: UHWW) — международный аэропорт (II категории ИКАО) имени В. К. Арсеньева. Аэропорт расположен западнее села Кневичи, в 2,5 км от города Артёма, и в 38 км северо-восточнее города Владивосток.

Имеются две взлётно-посадочные полосы с искусственным покрытием:

25Л/07П длиной 3500 м и шириной 60 м, прочность покрытия PCN 52/R/B/X/T (смешанная)

25П/07Л длиной 3500 м и шириной 60 м, прочность покрытия PCN 54/R/B/X/T - не используется

Принимаемые воздушные суда: все типы без ограничений.



2020 © VATRUS division (Privacy Policy)